When you browse on this site, cookies collect data to enhance your experience and personalize the content and advertising you see.
Visit our Privacy Policy to learn more. By continuing to use the site, you agree to this use of cookies and data.

Stündliche Wetter Sutatausa

Heute, 8 August, Samstag

Zeit Temperatur Niederschläge Wind Luftdruck Luftfeuchtigkeit
00:00 +11°C° 0 mm 1 m/S 549 mmHg 92%
01:00 +11°C° 0 mm 1 m/S 549 mmHg 92%
02:00 +11°C° 0 mm 1 m/S 549 mmHg 93%
03:00 +11°C° 0 mm 1 m/S 549 mmHg 93%
04:00 +10°C° 0 mm 1 m/S 548 mmHg 94%
05:00 +11°C° 0 mm 1 m/S 549 mmHg 93%
06:00 +11°C° 0 mm 1 m/S 549 mmHg 92%
07:00 +12°C° 0 mm 1 m/S 550 mmHg 90%
08:00 +13°C° 0 mm 2 m/S 551 mmHg 82%
09:00 +15°C° 0 mm 2 m/S 552 mmHg 74%
10:00 +17°C° 0 mm 2 m/S 553 mmHg 66%
11:00 +18°C° 0.1 mm 3 m/S 552 mmHg 63%
12:00 +18°C° 0.1 mm 3 m/S 552 mmHg 60%
13:00 +19°C° 0.1 mm 4 m/S 552 mmHg 57%
14:00 +19°C° 0.1 mm 3 m/S 552 mmHg 58%
15:00 +18°C° 0.1 mm 3 m/S 551 mmHg 60%
16:00 +18°C° 0.1 mm 3 m/S 550 mmHg 62%
17:00 +16°C° 0.1 mm 3 m/S 549 mmHg 72%
18:00 +13°C° 0.1 mm 2 m/S 549 mmHg 83%
19:00 +11°C° 0.1 mm 1 m/S 548 mmHg 93%
20:00 +10°C° 0 mm 2 m/S 548 mmHg 93%
21:00 +10°C° 0 mm 2 m/S 549 mmHg 92%
22:00 +10°C° 0 mm 2 m/S 549 mmHg 92%
23:00 +10°C° 0 mm 2 m/S 549 mmHg 91%

Morgen, 9 August, Sonntag

Zeit Temperatur Niederschläge Wind Luftdruck Luftfeuchtigkeit
00:00 +11°C° 0 mm 1 m/S 549 mmHg 91%
01:00 +11°C° 0 mm 1 m/S 549 mmHg 91%
02:00 +11°C° 0 mm 1 m/S 549 mmHg 91%
03:00 +11°C° 0 mm 1 m/S 548 mmHg 91%
04:00 +11°C° 0 mm 1 m/S 548 mmHg 92%
05:00 +11°C° 0 mm 1 m/S 548 mmHg 91%
06:00 +10°C° 0 mm 2 m/S 549 mmHg 90%
07:00 +12°C° 0 mm 2 m/S 549 mmHg 89%
08:00 +13°C° 0 mm 2 m/S 550 mmHg 83%
09:00 +15°C° 0 mm 2 m/S 551 mmHg 76%
10:00 +16°C° 0 mm 2 m/S 552 mmHg 70%
11:00 +17°C° 0.1 mm 2 m/S 552 mmHg 67%
12:00 +18°C° 0.1 mm 2 m/S 552 mmHg 65%
13:00 +18°C° 0.1 mm 2 m/S 552 mmHg 62%
14:00 +18°C° 0.1 mm 2 m/S 551 mmHg 62%
15:00 +18°C° 0.1 mm 2 m/S 551 mmHg 63%
16:00 +18°C° 0.1 mm 2 m/S 550 mmHg 63%
17:00 +15°C° 0.1 mm 2 m/S 549 mmHg 73%
18:00 +13°C° 0.1 mm 2 m/S 548 mmHg 83%
19:00 +11°C° 0.1 mm 1 m/S 547 mmHg 93%
20:00 +11°C° 0 mm 1 m/S 547 mmHg 93%
21:00 +11°C° 0 mm 1 m/S 548 mmHg 92%
22:00 +11°C° 0 mm 1 m/S 548 mmHg 92%
23:00 +11°C° 0 mm 1 m/S 548 mmHg 92%

übermorgen, 10 August, Montag

Zeit Temperatur Niederschläge Wind Luftdruck Luftfeuchtigkeit
00:00 +11°C° 0 mm 1 m/S 548 mmHg 91%
01:00 +11°C° 0 mm 1 m/S 548 mmHg 91%
02:00 +11°C° 0 mm 1 m/S 548 mmHg 91%
03:00 +11°C° 0 mm 1 m/S 547 mmHg 92%
04:00 +10°C° 0 mm 1 m/S 547 mmHg 92%
05:00 +11°C° 0 mm 1 m/S 548 mmHg 91%
06:00 +11°C° 0 mm 1 m/S 548 mmHg 89%
07:00 +12°C° 0 mm 1 m/S 548 mmHg 88%
08:00 +13°C° 0 mm 2 m/S 550 mmHg 80%
09:00 +15°C° 0 mm 2 m/S 551 mmHg 73%
10:00 +17°C° 0 mm 2 m/S 552 mmHg 65%
11:00 +18°C° 0.1 mm 2 m/S 552 mmHg 63%
12:00 +19°C° 0.1 mm 2 m/S 551 mmHg 60%
13:00 +19°C° 0.1 mm 3 m/S 551 mmHg 58%
14:00 +19°C° 0.4 mm 2 m/S 550 mmHg 63%
15:00 +18°C° 0.4 mm 2 m/S 549 mmHg 67%
16:00 +17°C° 0.4 mm 2 m/S 548 mmHg 72%
17:00 +15°C° 0.3 mm 1 m/S 548 mmHg 79%
18:00 +14°C° 0.3 mm 1 m/S 547 mmHg 87%
19:00 +12°C° 0.3 mm 1 m/S 546 mmHg 94%
20:00 +11°C° 0.1 mm 1 m/S 547 mmHg 95%
21:00 +11°C° 0.1 mm 1 m/S 547 mmHg 95%
22:00 +10°C° 0.1 mm 1 m/S 547 mmHg 96%
23:00 +10°C° 0 mm 1 m/S 547 mmHg 96%

11 August, Dienstag

Zeit Temperatur Niederschläge Wind Luftdruck Luftfeuchtigkeit
00:00 +10°C° 0 mm 1 m/S 547 mmHg 95%
01:00 +10°C° 0 mm 1 m/S 546 mmHg 95%
02:00 +10°C° 0 mm 1 m/S 546 mmHg 95%
03:00 +9°C° 0 mm 1 m/S 546 mmHg 94%
04:00 +9°C° 0 mm 1 m/S 546 mmHg 94%
05:00 +10°C° 0 mm 1 m/S 546 mmHg 92%
06:00 +11°C° 0 mm 1 m/S 547 mmHg 90%
07:00 +11°C° 0 mm 1 m/S 547 mmHg 88%
08:00 +14°C° 0 mm 1 m/S 549 mmHg 77%
09:00 +16°C° 0 mm 2 m/S 550 mmHg 67%
10:00 +19°C° 0 mm 2 m/S 552 mmHg 56%
11:00 +19°C° 0.2 mm 3 m/S 551 mmHg 58%
12:00 +19°C° 0.2 mm 3 m/S 551 mmHg 59%
13:00 +20°C° 0.2 mm 3 m/S 550 mmHg 60%
14:00 +19°C° 0.4 mm 3 m/S 550 mmHg 62%
15:00 +19°C° 0.4 mm 2 m/S 549 mmHg 64%
16:00 +18°C° 0.4 mm 2 m/S 548 mmHg 67%
17:00 +16°C° 0.3 mm 2 m/S 548 mmHg 75%
18:00 +14°C° 0.3 mm 1 m/S 547 mmHg 83%
19:00 +12°C° 0.3 mm 1 m/S 546 mmHg 92%
20:00 +11°C° 0.1 mm 1 m/S 546 mmHg 93%
21:00 +11°C° 0.1 mm 1 m/S 547 mmHg 94%
22:00 +10°C° 0.1 mm 1 m/S 547 mmHg 96%
23:00 +10°C° 0 mm 1 m/S 547 mmHg 96%

12 August, Mittwoch

Zeit Temperatur Niederschläge Wind Luftdruck Luftfeuchtigkeit
00:00 +10°C° 0 mm 1 m/S 546 mmHg 96%
01:00 +10°C° 0 mm 1 m/S 546 mmHg 96%
02:00 +10°C° 0 mm 1 m/S 546 mmHg 95%
03:00 +10°C° 0 mm 1 m/S 546 mmHg 95%
04:00 +9°C° 0 mm 1 m/S 545 mmHg 94%
05:00 +10°C° 0 mm 1 m/S 546 mmHg 92%
06:00 +11°C° 0 mm 1 m/S 547 mmHg 89%
07:00 +12°C° 0 mm 1 m/S 548 mmHg 87%
08:00 +14°C° 0 mm 1 m/S 549 mmHg 78%
09:00 +16°C° 0 mm 2 m/S 550 mmHg 70%
10:00 +18°C° 0 mm 2 m/S 552 mmHg 61%
11:00 +19°C° 0.3 mm 2 m/S 551 mmHg 61%
12:00 +19°C° 0.3 mm 3 m/S 551 mmHg 61%
13:00 +19°C° 0.3 mm 3 m/S 550 mmHg 61%
14:00 +19°C° 0.4 mm 3 m/S 549 mmHg 63%
15:00 +18°C° 0.4 mm 2 m/S 549 mmHg 66%
16:00 +18°C° 0.4 mm 2 m/S 548 mmHg 68%
17:00 +16°C° 0.4 mm 2 m/S 547 mmHg 76%
18:00 +14°C° 0.4 mm 2 m/S 547 mmHg 85%
19:00 +12°C° 0.4 mm 1 m/S 546 mmHg 93%
20:00 +12°C° 0.2 mm 1 m/S 546 mmHg 94%
21:00 +11°C° 0.2 mm 1 m/S 547 mmHg 94%
22:00 +11°C° 0.2 mm 1 m/S 547 mmHg 95%
23:00 +11°C° 0 mm 1 m/S 547 mmHg 94%

13 August, Donnerstag

Zeit Temperatur Niederschläge Wind Luftdruck Luftfeuchtigkeit
00:00 +11°C° 0 mm 1 m/S 547 mmHg 94%
01:00 +11°C° 0 mm 1 m/S 546 mmHg 93%
02:00 +11°C° 0 mm 1 m/S 546 mmHg 93%
03:00 +11°C° 0 mm 1 m/S 546 mmHg 93%
04:00 +11°C° 0 mm 1 m/S 546 mmHg 94%
05:00 +11°C° 0.1 mm 1 m/S 547 mmHg 93%
06:00 +12°C° 0.1 mm 1 m/S 547 mmHg 92%
07:00 +12°C° 0.1 mm 1 m/S 548 mmHg 92%
08:00 +14°C° 0.1 mm 1 m/S 549 mmHg 86%
09:00 +15°C° 0.1 mm 1 m/S 550 mmHg 80%
10:00 +18°C° 0.1 mm 1 m/S 551 mmHg 74%
11:00 +17°C° 0.7 mm 2 m/S 550 mmHg 74%
12:00 +17°C° 0.7 mm 2 m/S 550 mmHg 75%
13:00 +18°C° 0.7 mm 2 m/S 549 mmHg 75%
14:00 +17°C° 0.8 mm 2 m/S 549 mmHg 77%
15:00 +17°C° 0.8 mm 2 m/S 548 mmHg 80%
16:00 +16°C° 0.8 mm 1 m/S 547 mmHg 82%
17:00 +15°C° 0.5 mm 1 m/S 547 mmHg 86%
18:00 +14°C° 0.5 mm 1 m/S 547 mmHg 90%
19:00 +13°C° 0.5 mm 1 m/S 547 mmHg 94%
20:00 +13°C° 0.3 mm 1 m/S 547 mmHg 95%
21:00 +13°C° 0.3 mm 1 m/S 547 mmHg 95%
22:00 +12°C° 0.3 mm 1 m/S 548 mmHg 96%
23:00 +12°C° 0.5 mm 1 m/S 547 mmHg 96%
Mehr zeigen